Regional Weather Roundup
Issued by NWS Jackson, KY

Home | Current Version | Previous Version | Graphics & Text | Print | Product List | Glossary On
Versions: 1 2 3 4 5 6 7 8 9 10 11 12 13 14 15 16 17 18 19 20 21 22 23 24 25 26 27 28 29 30 31 32 33 34 35 36 37 38 39 40 41 42 43 44 45 46 47 48 49 50
000
ASUS43 KJKL 261310
RWRJKL

EAST KENTUCKY HOURLY WEATHER ROUNDUP
NATIONAL WEATHER SERVICE JACKSON KY
900 AM EDT THU MAR 26 2015

NOTE: "FAIR" INDICATES FEW OR NO CLOUDS BELOW 12,000 FEET WITH
NO SIGNIFICANT WEATHER AND/OR OBSTRUCTIONS TO VISIBILITY.

* THESE REPORTS ARE NOT UNDER NWS QUALITY CONTROL AND MAY NOT
  REPORT WEATHER SUCH AS PRECIPITATION AND FOG.

KYZ079-080-083-085-087-088-110-112-115-119-120-261400
...EASTERN KENTUCKY...

CITY           SKY/WX    TMP DP  RH WIND       PRES   REMARKS
JACKSON        CLOUDY    62  50  64 VRB6      29.83F
LONDON         CLOUDY    65  50  58 SW12      29.86S
SOMERSET*      CLOUDY    59  55  88 SW5       29.88R
MONTICELLO*    CLOUDY    62  58  87 SW9       29.89F
MIDDLESBORO*   PTSUNNY   63  56  78 S8G21     29.90F
BLACK MTN*       N/A     50  50 100 S9          N/A
PIKEVILLE APT* MOSUNNY   63  52  67 S6G16     29.85F
BIG SANDY*     PTSUNNY   64  52  65 S10G18    29.84F
MOREHEAD APT*  PTSUNNY   59  55  88 S8G17     29.83F FOG
$$

KYZ035-036-041-042-044-050-067-078-099-261400
...CENTRAL KENTUCKY...

CITY           SKY/WX    TMP DP  RH WIND       PRES   REMARKS
MT STERLING*   CLOUDY    59  57  94 SW12      29.81F
FLEMING/MASON* RAIN      48  48 100 CALM      29.80F
DANVILLE*      CLOUDY    59  55  88 SW12G20   29.83F
RICHMOND*      CLOUDY    59  55  88 S10G17    29.82F
LEXINGTON      LGT RAIN  53  53 100 W7        29.82S FOG
FRANKFORT      CLOUDY    48  46  93 N8        29.82F
$$

KYZ091>093-OHZ055-061-077-WVZ005-015-034-035-042-261400
...SOUTHERN OHIO/WEST VIRGINIA...

CITY           SKY/WX    TMP DP  RH WIND       PRES   REMARKS
COVINGTON      LGT RAIN  45  45 100 N13       29.85S FOG
COLUMBUS       LGT RAIN  43  43 100 N7        29.82S FOG
DAYTON         LGT RAIN  43  41  93 N8        29.87R FOG
WILMINGTON     RAIN      43  41  93 N10       29.85R FOG
HUNTINGTON     PTSUNNY   62  51  67 SW10G21   29.79F
CHARLESTON     CLOUDY    64  51  62 S10       29.81F
PINEVILLE*     PTSUNNY   63  56  79 MISG      29.94S
BECKLEY        PTSUNNY   58  50  75 S7        29.90F
BLUEFIELD      MOSUNNY   61  49  64 W10       29.94S
$$

VAZ002-007-008-TNZ017-027-036-066-071-261400
...SOUTHWEST VIRGINIA/EAST TENNESSEE...

CITY           SKY/WX    TMP DP  RH WIND       PRES   REMARKS
WISE*          PTSUNNY   59  50  72 SW15      29.95S
JONESVILLE*    MOSUNNY   57  55  94 CALM      29.94F
ABINGDON*      CLOUDY    61  54  77 W7        29.94R
BRISTOL        PTSUNNY   60  54  80 CALM      29.94R
KNOXVILLE      PTSUNNY   63  55  75 SW13      29.91F
OAK RIDGE      CLOUDY    64  57  78 S10       29.93F
CROSSVILLE     CLOUDY    60  56  86 S8        29.93S
NASHVILLE      PTSUNNY   65  56  72 SW5       29.88R
$$

...KEY TO REMARKS...
VSB - VISIBILITY IN MILES
WCI - WIND CHILL INDEX
HX  - HEAT INDEX

$$



USA.gov is the U.S. government's official web portal to all federal, state and local government web resources and services.